Location: Unspecified
(41.1637°N, 24.2901°E)
Time: 16:49:24
(UTC+01:00)

ISS - Pass Details

Date: 24 January 2020
Orbit: 415 x 421 km, 51.6° (Epoch: 18 January)

Event Time Altitude Azimuth Distance (km) Brightness Sun altitude
Rises 18:24:29 0° 272° (W) 2,360 1.5 -21.7°
Reaches altitude 10° 18:26:56 10° 289° (WNW) 1,497 -0.1 -22.1°
Enters shadow 18:29:24 21° 337° (NNW) 1,003 -1.7 -22.6°
